Location: Congrier
(47.8099°N, 1.1170°W)
Time: 07:50:28
(UTC+00:00)

ATLAS CENTAUR R/B - Pass Details

Date: 28 January 2023
Orbit: 450 x 653 km, 64.7° (Epoch: 19 March)

Event Time Altitude Azimuth Distance (km) Brightness Sun altitude
Rises 17:33:20 0° 178° (S) 2,980 5.3 -6.2°
Reaches altitude 10° 17:36:05 10° 162° (SSE) 2,068 4.3 -6.7°
Maximum altitude 17:39:38 21° 114° (ESE) 1,445 3.0 -7.2°
Drops below altitude 10° 17:43:07 10° 65° (ENE) 2,034 3.5 -7.8°
Enters shadow 17:43:15 10° 64° (ENE) 2,072 3.6 -7.8°
